Regional Weather Roundup
Issued by NWS

Home | Current Version | Previous Version | Graphics & Text | Print | Product List | Glossary On
Versions: 1 2 3 4 5 6 7 8 9 10 11 12 13 14 15 16 17 18 19 20 21 22 23 24 25 26 27 28 29 30 31 32 33 34 35 36 37 38 39 40 41 42 43 44 45 46 47 48 49 50
000
ASUS43 KIND 301809
RWRIN

WEATHER ROUNDUP FOR INDIANA
NATIONAL WEATHER SERVICE INDIANAPOLIS IN
200 PM EDT TUE JUN 30 2015

NOTE: "FAIR" INDICATES FEW OR NO CLOUDS BELOW 12,000 FEET WITH NO
SIGNIFICANT WEATHER AND/OR OBSTRUCTIONS TO VISIBILITY.

* - STATION DOES NOT REPORT WEATHER SUCH AS PRECIPITATION OR FOG.

+ - STATION NOT QUALITY CONTROLLED BY THE NATIONAL WEATHER SERVICE.
    USE DATA WITH CAUTION...ESPECIALLY DEWPOINT AND RELATIVE
    HUMIDITY OBSERVATIONS.

INZ001>003-010>013-019-020-301900-
NORTHWEST INDIANA

CITY           SKY/WX    TMP DP  RH WIND       PRES   REMARKS
GARY /AIRPORT/ MOSUNNY  N/A N/A N/A VRB3      29.81F
KNOX *+        PTSUNNY   73  61  64 W7        29.80F
LA PORTE +     SUNNY     75  61  62 NW7       29.82S
MICHIGAN CITY+ SUNNY     70  61  73 NW7       29.83R
MONTICELLO +   SUNNY     77  64  64 W9        29.81F
6HR MIN TEMP:  62; 6HR MAX TEMP:  77;

RENSSELAER +   SUNNY     77  63  61 W7        29.82F
VALPARAISO     PTSUNNY   76  60  57 VRB7      29.81F
6HR MIN TEMP:  64; 6HR MAX TEMP:  76;


$$

LMZ046-743>745-301900-
SOUTHERN LAKE MICHIGAN

STATION/POSITION TIME  TEMP    WIND        PRES    WAVE
                       AIR SEA DIR/SP/G            HT
                 (UTC) (F)     (DEG/KT/KT) (MB)    (FT)
BURNS HARBOR     1800   70     290/  2/  3 1010.5R
MICHIGAN CITY    1800   65     350/ 10/ 11   N/A
5NW MICH CITY    1800   64 66   20/ 10/ 12   N/A     1

$$

INZ004-005-014>016-021>024-301900-
NORTH CENTRAL INDIANA

CITY           SKY/WX    TMP DP  RH WIND       PRES   REMARKS
ELKHART        PTSUNNY   75  63  64 W9G16     29.80F
GOSHEN         PTSUNNY   73  64  73 SW9       29.80F
6HR MIN TEMP:  64; 6HR MAX TEMP:  73; 6HR PCP:  0.04;

LOGANSPORT +   MOSUNNY   77  55  47 W13       29.82F
PERU/GRISSOM   MOSUNNY   76  65  67 W10G21    29.81F
6HR MIN TEMP:  62; 6HR MAX TEMP:  76; 6HR PCP:  0.12;

ROCHESTER +    MOSUNNY   79  64  61 W8        29.81F
SOUTH BEND     MOSUNNY   74  62  66 NW12      29.81S
6HR MIN TEMP:  65; 6HR MAX TEMP:  74; 6HR PCP:  0.01;

WARSAW +         N/A     73  64  73 W7        29.81F

$$

INZ006>009-017-018-025>027-301900-
NORTHEAST INDIANA

CITY           SKY/WX    TMP DP  RH WIND       PRES   REMARKS
ANGOLA *+      CLOUDY    70  63  78 SW6       29.81S
AUBURN +       CLOUDY    70  63  78 W5        29.82S
FORT WAYNE     PTSUNNY   74  64  71 W12       29.81F
6HR MIN TEMP:  63; 6HR MAX TEMP:  74; 6HR PCP:  0.07;

HUNTINGTON +   PTSUNNY   74  63  69 W8        29.80F
6HR MIN TEMP:  62; 6HR MAX TEMP:  75; 6HR PCP:  0.06;


$$

INZ028-029-035-036-043>045-051>053-301900-
WEST CENTRAL INDIANA

CITY           SKY/WX    TMP DP  RH WIND       PRES   REMARKS
CRAWFORDSVL +  CLOUDY    75  60  58 W8        29.85S
6HR MIN TEMP:  62; 6HR MAX TEMP:  76;

GREENCASTLE +  SUNNY     77  61  57 W3        29.85F
LAFAYETTE      SUNNY     77  63  61 W8        29.81F
6HR MIN TEMP:  64; 6HR MAX TEMP:  77;

TERRE HAUTE    MOSUNNY   81  67  62 W12       29.84F
6HR MIN TEMP:  67; 6HR MAX TEMP:  81;


$$

INZ030>032-037>040-046>048-054>057-064-065-301900-
CENTRAL INDIANA

CITY           SKY/WX    TMP DP  RH WIND       PRES   REMARKS
ANDERSON       MOSUNNY   75  57  53 CALM      29.84F
CP ATTERBURY + MOSUNNY   79  66  65 W8        29.84F
COLUMBUS       PTSUNNY   79  64  61 W15       29.83F
FRANKFORT +    MOSUNNY   79  65  62 W9        29.85F
GREENWOOD *+   MOSUNNY   79  63  57 W8G18     29.84F
INDIANAPOLIS   MOSUNNY   79  63  57 W12G20    29.82F
6HR MIN TEMP:  66; 6HR MAX TEMP:  80; 6HR PCP: TRACE;

-EAGLE CREEK   SUNNY     78  62  57 W12       29.83F
6HR MIN TEMP:  66; 6HR MAX TEMP:  79;

KOKOMO *+      PTSUNNY   77  64  65 W14       29.82S
6HR MIN TEMP:  63; 6HR MAX TEMP:  77; 6HR PCP:  0.03;

MARION +       PTSUNNY   75  63  65 W12       29.82F
MT COMFORT *+  SUNNY     81  52  36 W9        29.84S
SHELBYVILLE    MOSUNNY   80  66  62 W10       29.83F
6HR MIN TEMP:  67; 6HR MAX TEMP:  80; 6HR PCP: TRACE;

ZIONSVILLE +   SUNNY     78  61  54 W9G16     29.84F
6HR MIN TEMP:  65; 6HR MAX TEMP:  79;


$$

INZ033-034-041-042-049-050-058-059-301900-
EAST CENTRAL INDIANA

CITY           SKY/WX    TMP DP  RH WIND       PRES   REMARKS
MUNCIE         MOSUNNY   75  63  66 W6G16     29.83S
6HR MIN TEMP:  66; 6HR MAX TEMP:  76; 6HR PCP:  0.02;


$$

INZ060-061-067>069-081>083-085>088-301900-
SOUTHWEST INDIANA

CITY           SKY/WX    TMP DP  RH WIND       PRES   REMARKS
EVANSVILLE     PTSUNNY   82  68  62 W10       29.88F
6HR MIN TEMP:  70; 6HR MAX TEMP:  83;

WASHINGTON +   MOSUNNY   82  65  56 W10       29.85F
6HR MIN TEMP:  68; 6HR MAX TEMP:  82;


$$

INZ062-063-066-070>080-084-089>092-301900-
SOUTH CENTRAL AND SOUTHEAST INDIANA

CITY           SKY/WX    TMP DP  RH WIND       PRES   REMARKS
BLOOMINGTON    PTSUNNY   78  68  71 W10       29.85F
6HR MIN TEMP:  67; 6HR MAX TEMP:  80;

MADISON *+     MOSUNNY   81  63  54 SW13      29.87F
NORTH VERNON + PTSUNNY   68  68 100 SE6       29.86S
SEYMOUR +      PTSUNNY   81  66  61 W16G22    29.84F

$$




USA.gov is the U.S. government's official web portal to all federal, state and local government web resources and services.